Regional Weather Roundup
Issued by NWS

Home | Current Version | Previous Version | Text Only | Print | Product List | Glossary On
Versions: 1 2 3 4 5 6 7 8 9 10 11 12 13 14 15 16 17 18 19 20 21 22 23 24 25 26 27 28 29 30 31 32 33 34 35 36 37 38 39 40 41 42 43 44 45 46 47 48 49 50
000
ASUS43 KLSX 242107
RWRMO

WEATHER SUMMARY FOR MISSOURI
NATIONAL WEATHER SERVICE SPRINGFIELD MO
400 PM CDT SAT JUN 24 2017

NOTE: "FAIR" INDICATES FEW OR NO CLOUDS BELOW 12,000 FEET WITH NO
       SIGNIFICANT WEATHER AND/OR OBSTRUCTIONS TO VISIBILITY.
       CURRENT SKY AND/OR WEATHER CONDITIONS ARE NOT AVAILABLE FOR
       CHILLICOTHE AND FARMINGTON.

MOZ001>031-035>038-043-044-053-054-242200-
...NORTHERN AND WESTERN MISSOURI...

CITY           SKY/WX    TMP DP  RH WIND       PRES   REMARKS
KANSAS CTY INT MOSUNNY   77  44  30 NW13      30.19F
KANSAS C DTWN  SUNNY     79  42  26 W8        30.18F
LEE`S SUMMIT   SUNNY     77  39  25 N16G22    30.19F
ST JOSEPH      SUNNY     80  44  27 NW14G21   30.19F
CHILLICOTHE      N/A     78  42  27 NW9       30.17F
KIRKSVILLE     SUNNY     74  43  32 NW9G20    30.16F

$$
MOZ066>068-077>081-088>096-101>105-242200-
...SOUTHWEST MISSOURI...

CITY           SKY/WX    TMP DP  RH WIND       PRES   REMARKS
SPRINGFIELD    SUNNY     77  51  40 N12       30.18F
JOPLIN         SUNNY     81  53  37 N9        30.19F
BRANSON        PTSUNNY   77  54  44 NW8       30.19F

$$
MOZ032>034-039>042-045>050-055>058-069>072-242200-
...CENTRAL MISSOURI...

CITY           SKY/WX    TMP DP  RH WIND       PRES   REMARKS
COLUMBIA       SUNNY     77  45  32 NW14G22   30.15F
JEFFERSON CITY SUNNY     79  43  27 NW12      30.14F
ROLLA          SUNNY     77  47  34 N12       30.15S
SEDALIA        SUNNY     78  49  35 N12       30.18F
WHITEMAN AFB   SUNNY     78  43  28 NW13      30.16F
WARRENSBURG    SUNNY     77  43  29 NW10G17   30.18S
OSAGE BEACH    SUNNY     78  45  30 NW6       30.17F

$$
MOZ051-052-059>065-242200-
...EAST CENTRAL MISSOURI...

CITY           SKY/WX    TMP DP  RH WIND       PRES   REMARKS
ST LOUIS INTL  MOSUNNY   80  46  30 NW14      30.12F
SPIRIT OF STL  MOSUNNY   79  48  33 NW15G21   30.11F
ST CHARLES     SUNNY     80  46  30 NW10G22   30.11S

$$
MOZ072>076-082>087-097>100-106>115-242200-
...SOUTH CENTRAL AND SOUTHEAST MISSOURI...

CITY           SKY/WX    TMP DP  RH WIND       PRES   REMARKS
CAPE GIRARDEAU MOSUNNY   78  51  38 NW14      30.11R
FARMINGTON     CLOUDY    78  51  38 VRB6G17   30.13F
POPLAR BLUFF   PTSUNNY   81  57  43 N12       30.11F
WEST PLAINS    MOSUNNY   79  50  36 NW9       30.17F

$$


USA.gov is the U.S. government's official web portal to all federal, state and local government web resources and services.